FW0414 Weather Reports


time (UTC)temp
C
wind
direction
speed
KPH
gust
KPH
rain 1hr
cm
rain 24hr
cm
rain mn
cm
humidity
%
barometer
mb
20260505212445 23 82 3.2 11.3 0.00 0.00 0.00 43 1013.3
20260505211938 23 125 4.8 19.3 0.00 0.00 0.00 41 1013.4
20260505211434 23 115 4.8 19.3 0.00 0.00 0.00 41 1013.4
20260505210929 23 169 3.2 14.5 0.00 0.00 0.00 39 1013.4
20260505210423 23 112 3.2 19.3 0.00 0.00 0.00 41 1013.6
20260505210137 23 82 4.8 19.3 0.00 0.00 0.00 38 1013.5
20260505205410 23 96 4.8 16.1 0.00 0.00 0.00 41 1013.5
20260505204904 23 113 3.2 14.5 0.00 0.00 0.00 40 1013.5
20260505204624 23 73 3.2 19.3 0.00 0.00 0.00 45 1013.5
20260505204116 23 111 3.2 19.3 0.00 0.00 0.00 43 1013.5
20260505203346 23 111 3.2 20.9 0.00 0.00 0.00 43 1013.4
20260505202840 23 161 4.8 20.9 0.00 0.00 0.00 42 1013.4
20260505202332 23 49 4.8 12.9 0.00 0.00 0.00 42 1013.4
20260505201827 23 88 4.8 16.1 0.00 0.00 0.00 44 1013.6
20260505201552 23 213 4.8 16.1 0.00 0.00 0.00 40 1013.7
20260505200814 24 206 3.2 14.5 0.00 0.00 0.00 41 1013.6
20260505200309 25 78 3.2 14.5 0.00 0.00 0.00 39 1013.9
20260505195805 24 103 3.2 14.5 0.00 0.00 0.00 40 1013.7
20260505195258 24 348 3.2 12.9 0.00 0.00 0.00 40 1013.7
20260505194751 24 323 3.2 12.9 0.00 0.00 0.00 45 1013.8
20260505194246 24 121 4.8 14.5 0.00 0.00 0.00 39 1013.9
20260505194227 24 105 3.2 16.1 0.00 0.00 0.00 39 1014.0
20260505193233 24 107 3.2 16.1 0.00 0.00 0.00 40 1014.0
20260505192729 23 342 4.8 17.7 0.00 0.00 0.00 41 1014.0
20260505192220 24 124 4.8 17.7 0.00 0.00 0.00 40 1014.2
20260505191716 24 128 3.2 14.5 0.00 0.00 0.00 44 1014.2
20260505191209 24 100 3.2 11.3 0.00 0.00 0.00 44 1014.3
20260505190704 24 101 4.8 20.9 0.00 0.00 0.00 43 1014.6
20260505190159 23 142 4.8 20.9 0.00 0.00 0.00 44 1014.6
20260505185917 23 338 4.8 14.5 0.00 0.00 0.00 47 1014.6
20260505185156 23 59 4.8 14.5 0.00 0.00 0.00 41 1014.7
20260505184655 23 159 4.8 14.5 0.00 0.00 0.00 45 1014.7
20260505184156 23 59 3.2 12.9 0.00 0.00 0.00 41 1014.6
20260505183655 23 189 3.2 14.5 0.00 0.00 0.00 43 1014.8
20260505183418 23 207 4.8 14.5 0.00 0.00 0.00 41 1014.7
20260505182655 23 131 4.8 14.5 0.00 0.00 0.00 40 1014.9
20260505182155 23 105 4.8 16.1 0.00 0.00 0.00 40 1014.9
20260505181654 23 61 3.2 16.1 0.00 0.00 0.00 41 1015.1
20260505181156 23 215 4.8 17.7 0.00 0.00 0.00 41 1015.1
20260505180655 23 107 6.4 19.3 0.00 0.00 0.00 41 1015.3
20260505180153 23 102 4.8 19.3 0.00 0.00 0.00 43 1015.2
20260505175653 23 128 6.4 20.9 0.00 0.00 0.00 43 1015.5
20260505175153 23 46 6.4 20.9 0.00 0.00 0.00 39 1015.7
20260505174919 23 104 4.8 19.3 0.00 0.00 0.00 43 1015.6
20260505174421 23 130 4.8 12.9 0.00 0.00 0.00 43 1015.7
20260505173656 22 145 4.8 11.3 0.00 0.00 0.00 44 1015.7
20260505173413 22 63 4.8 12.9 0.00 0.00 0.00 47 1015.7
20260505172644 22 214 4.8 14.5 0.00 0.00 0.00 47 1015.6
20260505172137 22 107 4.8 16.1 0.00 0.00 0.00 49 1015.8
20260505171633 22 293 4.8 16.1 0.00 0.00 0.00 48 1015.9
20260505171126 22 101 4.8 17.7 0.00 0.00 0.00 47 1015.9
20260505171034 22 136 6.4 19.3 0.00 0.00 0.00 46 1015.8
20260505170655 22 232 4.8 17.7 0.00 0.00 0.00 46 1015.8
20260505170204 22 26 6.4 12.9 0.00 0.00 0.00 45 1015.8
20260505165114 22 124 4.8 19.3 0.00 0.00 0.00 43 1015.8
20260505165057 22 146 4.8 16.1 0.00 0.00 0.00 44 1015.7
20260505164111 22 138 3.2 16.1 0.00 0.00 0.00 45 1015.8
20260505163612 22 348 4.8 14.5 0.00 0.00 0.00 47 1015.8
20260505163109 22 105 6.4 16.1 0.00 0.00 0.00 47 1015.9
20260505162608 22 138 4.8 20.9 0.00 0.00 0.00 46 1015.9
20260505162111 22 113 4.8 20.9 0.00 0.00 0.00 48 1016.1
20260505161610 22 74 4.8 14.5 0.00 0.00 0.00 45 1016.0
20260505161109 22 103 4.8 14.5 0.00 0.00 0.00 48 1016.0
20260505160608 21 108 3.2 11.3 0.00 0.00 0.00 49 1015.9
20260505160110 21 30 4.8 14.5 0.00 0.00 0.00 47 1016.0
20260505153334 21 119 3.2 9.7 0.00 0.00 0.00 58 1016.1
20260505152606 20 38 3.2 9.7 0.00 0.00 0.00 55 1016.2
20260505152105 20 182 1.6 9.7 0.00 0.00 0.00 60 1016.3
20260505151604 20 177 3.2 9.7 0.00 0.00 0.00 58 1016.3
20260505151106 20 135 3.2 6.4 0.00 0.00 0.00 57 1016.5
20260505150601 20 65 3.2 6.4 0.00 0.00 0.00 60 1016.5
20260505140601 18 334 1.6 6.4 0.00 0.00 0.00 60 1016.1
20260505125002 10 315 0.0 1.6 0.00 0.00 0.00 91 1015.7
20260505124456 10 315 0.0 3.2 0.00 0.00 0.00 91 1015.6
20260505123949 10 311 1.6 3.2 0.00 0.00 0.00 92 1015.6
20260505123444 9 0 0.0 3.2 0.00 0.00 0.00 92 1015.6
20260505123203 9 313 0.0 6.4 0.00 0.00 0.00 92 1015.7
20260505122431 8 313 1.6 6.4 0.00 0.00 0.00 93 1015.6
20260505121926 8 313 0.0 4.8 0.00 0.00 0.00 92 1015.5
20260505121420 8 107 0.0 0.0 0.00 0.00 0.00 92 1015.6
20260505120913 7 106 0.0 0.0 0.00 0.00 0.00 92 1015.7
20260505120409 7 107 0.0 0.0 0.00 0.00 0.00 92 1015.7
20260505120130 7 107 0.0 0.0 0.00 0.00 0.00 92 1015.5
20260505115356 7 106 0.0 0.0 0.00 0.00 0.00 92 1015.4
20260505114851 7 106 0.0 0.0 0.00 0.00 0.00 92 1015.4
20260505114343 7 106 0.0 0.0 0.00 0.00 0.00 92 1015.1
20260505113838 6 106 0.0 0.0 0.00 0.00 0.00 92 1015.0
20260505113333 6 106 0.0 0.0 0.00 0.00 0.00 92 1014.9
20260505112824 6 106 0.0 0.0 0.00 0.00 0.00 91 1014.9
20260505112319 6 106 0.0 0.0 0.00 0.00 0.00 91 1014.7
20260505111815 6 106 0.0 0.0 0.00 0.00 0.00 90 1014.7
20260505111307 6 106 0.0 0.0 0.00 0.00 0.00 90 1014.7
20260505110802 6 106 0.0 0.0 0.00 0.00 0.00 90 1014.7
20260505110256 6 106 0.0 0.0 0.00 0.00 0.00 90 1014.7
20260505102208 6 106 0.0 0.0 0.00 0.00 0.00 90 1014.3
20260505101702 6 106 0.0 0.0 0.00 0.00 0.00 90 1014.4
20260505101156 6 106 0.0 0.0 0.00 0.00 0.00 89 1014.6
20260505100650 6 106 0.0 0.0 0.00 0.00 0.00 90 1014.7
20260505100359 6 106 0.0 0.0 0.00 0.00 0.00 90 1014.7
20260505095638 6 106 0.0 0.0 0.00 0.00 0.00 90 1014.7
20260505095132 6 106 0.0 0.0 0.00 0.00 0.00 90 1014.6
20260505094626 6 106 0.0 0.0 0.00 0.00 0.00 89 1014.7
20260505094121 6 106 0.0 0.0 0.00 0.00 0.00 90 1014.7
20260505093614 6 106 0.0 0.0 0.00 0.00 0.00 90 1014.7
20260505093108 6 106 0.0 0.0 0.00 0.00 0.00 89 1014.6
20260505092602 7 106 0.0 0.0 0.00 0.00 0.00 90 1014.8
20260505092056 6 106 0.0 0.0 0.00 0.00 0.00 90 1014.7
20260505091549 6 106 0.0 0.0 0.00 0.00 0.00 90 1014.8
20260505091045 6 106 0.0 0.0 0.00 0.00 0.00 90 1014.8
20260505090801 6 106 0.0 0.0 0.00 0.00 0.00 90 1014.9
20260505090032 6 106 0.0 1.6 0.00 0.00 0.00 89 1014.8
20260505085526 6 106 0.0 1.6 0.00 0.00 0.00 89 1014.9
20260505085020 6 106 0.0 1.6 0.00 0.00 0.00 89 1014.9
20260505084513 6 109 0.0 0.0 0.00 0.00 0.00 89 1014.9
20260505084008 6 109 0.0 0.0 0.00 0.00 0.00 89 1015.0
20260505083502 7 109 0.0 1.6 0.00 0.00 0.00 89 1014.9
20260505082956 7 109 0.0 1.6 0.00 0.00 0.00 89 1015.0
20260505082448 7 109 0.0 1.6 0.00 0.00 0.00 89 1015.0
20260505081944 7 109 0.0 0.0 0.00 0.00 0.00 89 1014.9
20260505081437 7 109 0.0 0.0 0.00 0.00 0.00 89 1014.9
20260505080932 7 109 0.0 0.0 0.00 0.00 0.00 89 1015.0
20260505080426 7 109 0.0 1.6 0.00 0.00 0.00 89 1015.0
20260505075918 7 109 0.0 1.6 0.00 0.00 0.00 89 1014.9
20260505075641 7 109 0.0 1.6 0.00 0.00 0.00 89 1014.9
20260505075129 7 109 0.0 1.6 0.00 0.00 0.00 89 1015.0
20260505074402 7 109 0.0 1.6 0.00 0.00 0.00 88 1015.0
20260505073856 7 109 0.0 1.6 0.00 0.00 0.00 89 1014.9
20260505073349 7 109 0.0 1.6 0.00 0.00 0.00 89 1014.9
20260505072843 7 109 0.0 1.6 0.00 0.00 0.00 88 1015.0
20260505072338 7 109 0.0 1.6 0.00 0.00 0.00 88 1015.0
20260505071832 7 109 0.0 0.0 0.00 0.00 0.00 88 1014.9
20260505071531 7 109 0.0 0.0 0.00 0.00 0.00 88 1014.9
20260505071415 7 109 0.0 0.0 0.00 0.00 0.00 88 1015.0
20260505070315 7 109 0.0 0.0 0.00 0.00 0.00 88 1014.9
20260505065808 7 109 0.0 1.6 0.00 0.00 0.00 88 1014.9
20260505065304 7 109 0.0 1.6 0.00 0.00 0.00 88 1015.0
20260505064755 7 109 0.0 1.6 0.00 0.00 0.00 87 1015.0
20260505064251 8 109 0.0 0.0 0.00 0.00 0.00 87 1014.9
20260505063745 8 109 0.0 0.0 0.00 0.00 0.00 87 1014.8
20260505063238 8 109 0.0 0.0 0.00 0.00 0.00 87 1014.8
20260505062955 8 109 0.0 1.6 0.00 0.00 0.00 87 1014.9
20260505062226 8 109 0.0 1.6 0.00 0.00 0.00 87 1015.0
20260505061720 8 109 0.0 1.6 0.00 0.00 0.00 87 1015.1
20260505061438 8 109 0.0 1.6 0.00 0.00 0.00 87 1015.1
20260505060708 8 109 0.0 1.6 0.00 0.00 0.00 87 1015.2
20260505060201 8 109 0.0 0.0 0.00 0.00 0.00 87 1015.2
20260505055916 8 109 0.0 0.0 0.00 0.00 0.00 87 1015.2
20260505055642 8 109 0.0 1.6 0.00 0.00 0.00 87 1015.3
20260505054642 8 109 0.0 1.6 0.00 0.00 0.00 87 1015.2
20260505054137 8 109 0.0 3.2 0.00 0.00 0.00 87 1015.2
20260505053632 8 109 0.0 3.2 0.00 0.00 0.00 87 1015.2
20260505053124 8 109 0.0 1.6 0.00 0.00 0.00 87 1015.2
20260505052841 8 109 0.0 3.2 0.00 0.00 0.00 87 1015.3
20260505052115 8 109 0.0 3.2 0.00 0.00 0.00 86 1015.3
20260505051607 8 109 0.0 1.6 0.00 0.00 0.00 86 1015.3
20260505051102 8 109 0.0 1.6 0.00 0.00 0.00 86 1015.2
20260505050823 8 109 0.0 1.6 0.00 0.00 0.00 86 1015.2
20260505041451 9 109 0.0 1.6 0.00 0.00 0.00 85 1015.1
20260505040952 10 109 0.0 0.0 0.00 0.00 0.00 85 1015.1
20260505040451 10 109 0.0 1.6 0.00 0.00 0.00 85 1015.1
20260505035947 10 109 0.0 1.6 0.00 0.00 0.00 84 1015.1
20260505035449 10 109 0.0 0.0 0.00 0.00 0.00 84 1015.1
20260505034946 10 109 0.0 0.0 0.00 0.00 0.00 84 1015.1
20260505034447 10 109 0.0 1.6 0.00 0.00 0.00 84 1015.2
20260505033944 10 109 0.0 1.6 0.00 0.00 0.00 84 1015.2
20260505033445 10 109 0.0 1.6 0.00 0.00 0.00 84 1015.2
20260505033436 10 109 0.0 1.6 0.00 0.00 0.00 84 1015.3
20260505032443 10 109 0.0 0.0 0.00 0.00 0.00 84 1015.4
20260505032204 10 109 0.0 1.6 0.00 0.00 0.00 83 1015.3
20260505031440 11 109 0.0 1.6 0.00 0.00 0.00 83 1015.3
20260505030933 11 109 0.0 0.0 0.00 0.00 0.00 83 1015.2
20260505030427 11 109 0.0 0.0 0.00 0.00 0.00 83 1015.3
20260505025925 11 109 0.0 0.0 0.00 0.00 0.00 83 1015.2
20260505025425 11 109 0.0 0.0 0.00 0.00 0.00 83 1015.2
20260505024926 11 109 0.0 0.0 0.00 0.00 0.00 82 1015.2
20260505024647 11 109 0.0 0.0 0.00 0.00 0.00 82 1015.2
20260505023923 11 109 0.0 0.0 0.00 0.00 0.00 81 1015.2
20260505023423 12 109 0.0 0.0 0.00 0.00 0.00 80 1015.1
20260505022921 12 109 0.0 0.0 0.00 0.00 0.00 80 1015.1
20260505022420 12 109 0.0 1.6 0.00 0.00 0.00 80 1015.0
20260505022142 12 109 0.0 1.6 0.00 0.00 0.00 79 1015.1
20260505021643 12 109 0.0 0.0 0.00 0.00 0.00 78 1015.0
20260505020915 12 109 0.0 0.0 0.00 0.00 0.00 79 1015.0
20260505020634 12 109 0.0 0.0 0.00 0.00 0.00 79 1015.0
20260505015909 13 109 0.0 0.0 0.00 0.00 0.00 79 1014.9
20260505015408 13 109 0.0 1.6 0.00 0.00 0.00 79 1014.9
20260505014905 13 109 0.0 1.6 0.00 0.00 0.00 78 1014.9
20260505014403 13 109 0.0 1.6 0.00 0.00 0.00 78 1014.7
20260505013902 13 109 0.0 1.6 0.00 0.00 0.00 78 1014.6
20260505013400 13 109 0.0 1.6 0.00 0.00 0.00 77 1014.4
20260505012859 13 109 0.0 1.6 0.00 0.00 0.00 77 1014.4
20260505012354 14 109 1.6 3.2 0.00 0.00 0.00 76 1014.4
20260505011847 14 109 0.0 3.2 0.00 0.00 0.00 77 1014.4
20260505011341 14 109 0.0 3.2 0.00 0.00 0.00 76 1014.3
20260505010837 15 109 0.0 3.2 0.00 0.00 0.00 75 1014.3
20260505010330 15 109 0.0 1.6 0.00 0.00 0.00 74 1014.3
20260505005823 15 109 0.0 1.6 0.00 0.00 0.00 73 1014.3
20260505005318 15 109 0.0 1.6 0.00 0.00 0.00 73 1014.2
20260505004812 16 109 0.0 1.6 0.00 0.00 0.00 72 1014.2
20260505004306 16 109 0.0 1.6 0.00 0.00 0.00 70 1014.2
20260505003758 16 109 0.0 1.6 0.00 0.00 0.00 69 1014.1
20260505003254 17 109 0.0 1.6 0.00 0.00 0.00 69 1014.1
20260505002746 17 109 0.0 1.6 0.00 0.00 0.00 69 1014.0
20260505002241 17 109 0.0 1.6 0.00 0.00 0.00 68 1014.0
20260505001736 17 111 0.0 1.6 0.00 0.00 0.00 67 1014.0
20260505001229 18 109 0.0 1.6 0.00 0.00 0.00 67 1014.0
20260505000724 18 109 0.0 1.6 0.00 0.00 0.00 67 1013.9
20260505000219 18 109 0.0 1.6 0.00 0.00 0.00 65 1013.9
20260504235930 18 109 0.0 0.0 0.00 0.00 0.00 65 1014.0
20260504235206 19 109 0.0 1.6 0.00 0.00 0.00 63 1013.9
20260504234700 19 109 0.0 1.6 0.00 0.00 0.00 61 1014.0
20260504234351 20 109 0.0 0.0 0.00 0.00 0.00 59 1014.0
20260504234241 20 109 0.0 1.6 0.00 0.00 0.00 61 1014.0
20260504233142 20 109 0.0 0.0 0.00 0.00 0.00 58 1014.0
20260504232636 20 109 0.0 1.6 0.00 0.00 0.00 57 1014.0
20260504232130 20 109 0.0 1.6 0.00 0.00 0.00 55 1014.0
20260504231624 21 109 0.0 0.0 0.00 0.00 0.00 54 1014.0
20260504231117 21 109 0.0 1.6 0.00 0.00 0.00 53 1013.9
20260504230612 21 109 0.0 1.6 0.00 0.00 0.00 52 1013.8
20260504230334 21 109 1.6 4.8 0.00 0.00 0.00 53 1013.8
20260504225559 21 109 1.6 4.8 0.00 0.00 0.00 50 1013.9
20260504225052 21 111 1.6 6.4 0.00 0.00 0.00 49 1014.0
20260504224548 21 76 1.6 6.4 0.00 0.00 0.00 47 1013.9
20260504224041 21 108 1.6 6.4 0.00 0.00 0.00 44 1014.0
20260504223534 21 108 1.6 6.4 0.00 0.00 0.00 45 1014.0
20260504223030 21 138 1.6 6.4 0.00 0.00 0.00 47 1014.0
20260504222750 21 32 3.2 12.9 0.00 0.00 0.00 47 1014.0
20260504222018 21 123 3.2 12.9 0.00 0.00 0.00 50 1014.1
20260504221732 22 87 3.2 14.5 0.00 0.00 0.00 46 1014.0
20260504221006 22 94 3.2 14.5 0.00 0.00 0.00 46 1014.0
20260504220500 22 123 3.2 12.9 0.00 0.00 0.00 45 1014.0
20260504215952 22 58 1.6 11.3 0.00 0.00 0.00 44 1013.9
20260504215448 22 296 1.6 4.8 0.00 0.00 0.00 47 1013.9
20260504214942 22 71 3.2 8.0 0.00 0.00 0.00 45 1013.8
20260504214434 22 42 3.2 8.0 0.00 0.00 0.00 46 1013.8
20260504213929 22 104 1.6 6.4 0.00 0.00 0.00 43 1013.8
20260504213424 22 221 1.6 11.3 0.00 0.00 0.00 44 1013.8
20260504213141 23 209 3.2 11.3 0.00 0.00 0.00 45 1013.9